{"data":{"norad_id":63196,"epoch":"2026-05-25T01:01:55.700256Z","epoch_age_seconds":70657,"freshness":"FRESH","line1":"1 63196U 25048P   26145.04300579  .00016630  00000+0  61175-3 0  9998","line2":"2 63196  43.0032  18.1233 0001897 263.6224  96.4412 15.27619536 68721","mean_motion":15.27619536,"eccentricity":0.0001897,"inclination_deg":43.0032,"raan_deg":18.1233,"arg_perigee_deg":263.6224,"mean_anomaly_deg":96.4412,"bstar":0.00061175,"rev_number":6872,"period_min":94.26430901575,"perigee_km":481.62916904064,"apogee_km":484.23225813117,"semimajor_km":6861.0677135859,"source":"CELESTRAK","updated_at":"2026-05-25T13:38:19.921774Z"}}